User: anonymous   Login
Location: Kawakawa
(35.3830°S, 174.0670°E)
Time: 06:13:50
(UTC+13:00)
Language:

Resurs 1-3 - Orbit

View from above orbital plane
View from above orbital plane
View from above satellite
View from above satellite

Ground track
Ground track

The orbit data is extracted from the following two-line orbital elements,

1 23342U 94074A   19295.12874720  .00000022  00000-0  99391-5 0  9995
2 23342  97.9669 341.7044 0001164 118.6882 241.4446 14.79401805344477
Epoch (UTC): 22 October 2019 03:05:23
Eccentricity: 0.0001164
inclination: 97.9669°
perigee height: 630 km
apogee height: 632 km
right ascension of ascending node: 341.7044°
argument of perigee: 118.6882°
revolutions per day: 14.79401805
mean anomaly at epoch: 241.4446°
orbit number at epoch: 34447

The dashed part of the orbit path shows where the satellite is in the earth's shadow,  

DLR